Location: College Rock
(37.2713°N, 119.1740°W)
Time: 03:50:47
(UTC+00:00)

ERS-2 - Pass Details

Date: 29 October 2020
Orbit: 493 x 498 km, 98.6° (Epoch: 23 November)

Event Time Altitude Azimuth Distance (km) Brightness Sun altitude
Rises 12:03:37 0° 146° (SE) 2,565 6.1 -27.4°
Reaches altitude 10° 12:05:48 10° 137° (SE) 1,686 5.3 -27.0°
Maximum altitude 12:09:05 33° 72° (ENE) 843 3.7 -26.3°
Enters shadow 12:10:37 23° 27° (NNE) 1,084 4.0 -26.0°
